カタログに戻る

S6 MICHAEL FREILICH

運用中科学LEO
NORAD 46984·PAYLOAD·🇪🇺 EU

打ち上げ Nov 21, 2020 から Vandenberg Space Force Base

Loading…

次のパス (今後24時間)

TLE

最新Source: CelesTrak SupGP

元期: Sep 14, 2026, 00:00 UTC

1 46984C 20086A   26257.00000000  .00000049  00000+0  21276-3 0  2579
2 46984  66.0420 310.5863 0007908 270.1158  25.4620 12.80929206    14

AllMySatでS6 MICHAEL FREILICHをリアルタイム追跡

Download on the App Store